www.pogodaiklimat.ru

Погода и климат >> Архив погоды >> Португалия >> Кастело Бранко


ПОГОДА в Кастело Бранко

  • Прогноз погоды в Кастело Бранко
  • Монитор погоды в Кастело Бранко

АРХИВ ПОГОДЫ в Кастело Бранко

Время (UTC), дата Ветер
(напр.,м/с)
 
Видим.   Явления Облачность Т
(С)
Тd
(С)
f
(%)
Тe
(С)
Тes
(С)
Комфортность P
(гПа)
Po
(гПа)
Тmin
(С)
Tmax
(С)
R
(мм)
R24
(мм)
S
(см)
01 12.08 СЗ 2 н/о н/о +13.7 +8.1 69 +13 +13 1021.2 975.7
02 12.08 СЗ 3 н/о н/о +13.7 +8.1 69 +13 +13 1021.0 975.5
03 12.08 С 2
{5}
н/о н/о +13.7 +8.2 69 +13 +13 1020.9 975.3
04 12.08 СЗ 3
{6}
н/о н/о +13.2 +7.4 68 +12 +12 1020.6 975.0
05 12.08 СЗ 3
{6}
н/о н/о +13.0 +7.9 71 +12 +12 1020.6 974.9
06 12.08 С 3-5
{8}
н/о н/о +14.6 +7.3 62 +14 +14 1020.6 975.2 +12.6
07 12.08 С 5-9
{9}
н/о н/о +16.5 +7.7 56 +16 +16 1020.6 975.5
08 12.08 С 5-9
{9}
30 км 1/0
[Ci fib]
+17.9 +7.6 51 +18 +20 1020.9 976.0
09 12.08 С 5-9
{10}
30 км 1/1 500 м
[Cu hum Ci fib]
+20.3 +7.6 44 +21 +25 комфорт 1020.8 976.3
10 12.08 С 6-9
{9}
30 км 1/0
[Ci fib]
+21.5 +6.7 38 +22 +27 комфорт 1020.5 976.1
11 12.08 СВ 5-8
{11}
30 км 1/0
[Ci fib]
+23.9 +5.8 31 +24 +32 комфорт 1020.0 976.0
12 12.08 С 5-9
{10}
30 км 1/0
[Ci fib]
+25.0 +3.9 25 +24 +33 комфорт 1019.1 975.3
13 12.08 С 5-8
{9}
30 км 1/0
[Ci sp]
+26.7 +3.6 23 +25 +35 комфорт 1018.4 974.9
14 12.08 С 5-9
{10}
н/о н/о +27.5 +2.4 20 +26 +26 жарко 1017.7 974.3
15 12.08 СВ 4-8
{10}
н/о н/о +27.8 +2.4 19 +26 +26 жарко 1017.0 973.7
16 12.08 С 5-9
{10}
н/о н/о +28.2 +2.0 18 +26 +26 жарко 1016.6 973.3
17 12.08 С 4-8
{9}
н/о н/о +28.0 +1.8 18 +26 +26 жарко 1016.3 973.1
18 12.08 С 4-8
{8}
н/о н/о +27.2 +1.4 19 +25 +25 комфорт 1016.3 972.9 +28.7
19 12.08 С 4-7
{7}
н/о н/о +25.3 +1.1 21 +24 +24 комфорт 1016.9 973.3
20 12.08 С 3
{6}
н/о н/о +24.1 +1.9 23 +23 +23 комфорт 1017.5 973.6
21 12.08 СЗ 3-5
{5}
н/о н/о +21.8 +6.8 38 +23 +23 комфорт 1018.7 974.5
22 12.08 СЗ 2
{5}
н/о н/о +19.7 +8.3 48 +21 +21 комфорт 1019.4 974.8
23 12.08 СЗ 2 н/о н/о +18.5 +8.6 52 +19 +19 1019.6 974.9
00 13.08 СЗ 2 н/о н/о +17.6 +8.3 54 +18 +18 1019.4 974.6
01 13.08 СЗ 3 н/о н/о +18.1 +7.4 50 +18 +18 1019.2 974.4
02 13.08 СЗ 2 н/о н/о +18.2 +6.5 46 +19 +19 1018.9 974.2
03 13.08 С 2
{5}
н/о н/о +17.8 +5.6 45 +18 +18 1018.7 973.9
04 13.08 С 4-6
{6}
н/о н/о +18.4 +5.9 44 +18 +18 1018.3 973.6
05 13.08 С 3-5
{7}
н/о н/о +17.6 +5.6 45 +18 +18 1018.4 973.6
06 13.08 С 3-6
{6}
н/о н/о +17.0 +5.9 48 +17 +17 1019.4 974.4 +16.8
07 13.08 С 3
{5}
н/о н/о +18.4 +5.9 44 +19 +19 1019.5 974.7
08 13.08 С 4 30 км 6/0
[Cs]
+21.0 +6.6 39 +22 +25 комфорт 1019.2 974.9
09 13.08 С 3
{6}
30 км 6/0
[Ci fib]
+23.5 +5.9 32 +24 +30 комфорт 1019.1 975.1
10 13.08 В 4-6
{6}
30 км 3/0
[Ci sp]
+25.3 +5.2 27 +25 +33 комфорт 1019.0 975.2
11 13.08 С 2-6
{6}
30 км 1/0
[Ci sp]
+27.3 +5.3 25 +26 +42 жарко 1018.7 975.3
12 13.08 С 2
{6}
30 км 1/0
[Ci fib]
+28.0 +5.4 24 +27 +44 жарко 1018.0 974.7
13 13.08
{6}
30 км 1/0
[Ci fib]
+29.5 +3.2 19 1017.2 974.1
14 13.08
{7}
н/о н/о +31.0 +2.9 17 1016.7 973.8
15 13.08 С 2
{6}
н/о н/о +31.2 +0.8 14 +28 +28 жарко 1016.0 973.2
16 13.08 С 3-6
{6}
н/о н/о +31.5 +2.2 15 +29 +29 жарко 1015.4 972.6
17 13.08 -5
{6}
н/о н/о +31.7 +2.4 16 1015.0 972.3
18 13.08 С 2
{7}
н/о н/о +31.0 +3.1 17 +29 +29 жарко 1015.1 972.3 +32.4
19 13.08 СЗ 5-8
{9}
н/о н/о +28.5 +8.3 28 +28 +28 жарко 1015.7 972.5
20 13.08 СЗ 3-5
{7}
н/о н/о +25.7 +9.4 36 +26 +26 жарко 1016.7 973.1
21 13.08 СЗ 3
{5}
н/о н/о +23.3 +10.1 43 +25 +25 комфорт 1017.9 973.9
22 13.08 З 3 н/о н/о +22.4 +10.4 47 +24 +24 комфорт 1018.2 974.1
23 13.08 СЗ 2 н/о н/о +21.1 +10.0 49 +23 +23 комфорт 1018.4 974.1
00 14.08 СЗ 2 н/о н/о +20.9 +10.0 50 +23 +23 комфорт 1018.7 974.3
01 14.08 З 2 н/о н/о +20.4 +9.9 51 +23 +23 комфорт 1018.8 974.4
02 14.08 СЗ 1 н/о н/о +20.5 +9.4 49 +23 +23 комфорт 1018.9 974.5
03 14.08 СЗ 2 н/о н/о +20.3 +8.4 46 +22 +22 комфорт 1018.7 974.3
04 14.08 С 2 н/о н/о +20.4 +8.7 47 +22 +22 комфорт 1018.7 974.2
05 14.08 СЗ 2 н/о н/о +19.9 +8.0 46 +21 +21 комфорт 1018.9 974.4
06 14.08 З 2 н/о н/о +18.3 +8.4 52 +19 +19 1019.5 974.7 +18.3
07 14.08 СЗ 2 н/о н/о +20.5 +9.0 48 +23 +23 комфорт 1019.5 975.0
08 14.08 30 км 1/0
[Ci fib]
+25.2 +8.1 34 1018.9 975.2
09 14.08 С 2
{6}
30 км 1/0
[Ci fib]
+27.9 +6.7 26 +27 +35 жарко 1018.7 975.3
10 14.08
{5}
30 км 1/0
[Ci fib]
+29.6 +6.0 23 1018.5 975.4
11 14.08 С 1 30 км 1/0
[Ci fib]
+30.8 +6.6 22 +29 +47 жарко 1018.1 975.2
12 14.08 С 1 30 км 1/0
[Ci fib]
+32.2 +5.3 19 +30 +50 жарко 1017.4 974.7
13 14.08
{6}
30 км 1/0
[Ci fib]
+33.0 +6.9 20 1016.8 974.2
14 14.08
{5}
н/о н/о +34.2 +6.5 18 1015.9 973.5
15 14.08 С 1
{6}
н/о н/о +34.8 +6.6 18 +33 +33 жарко 1015.2 972.9
16 14.08 -6
{6}
н/о н/о +35.3 +7.1 18 1014.6 972.4
17 14.08 ЮЗ 3-7
{8}
н/о н/о +35.2 +11.0 23 +35 +35 очень
жарко
1014.5 972.3
18 14.08 СЗ 4-8
{9}
н/о н/о +32.8 +11.4 27 +33 +33 жарко 1014.8 972.3 +36.0
19 14.08 З 5
{9}
н/о н/о +29.9 +14.4 39 +32 +32 жарко 1015.7 972.7
20 14.08 З 4-6
{7}
н/о н/о +26.7 +15.4 50 +30 +30 душно 1016.7 973.2
21 14.08 З 4
{7}
н/о н/о +25.2 +15.7 56 +28 +28 жарко 1017.5 973.8
22 14.08 З 3
{5}
н/о н/о +24.2 +15.8 59 +27 +27 жарко 1017.9 974.1
23 14.08 З 2 н/о н/о +23.9 +15.7 60 +27 +27 жарко 1018.0 974.1
00 15.08 С 1 н/о н/о +23.6 +15.9 62 +27 +27 жарко 1017.9 974.0
01 15.08 З 2 н/о н/о +22.5 +15.4 64 +26 +26 жарко 1018.0 973.9
02 15.08 СЗ 3
{5}
н/о н/о +21.3 +15.8 71 +25 +25 комфорт 1018.0 973.7
03 15.08 С 1
{5}
н/о н/о +22.3 +16.4 69 +27 +27 душно 1017.5 973.4
04 15.08 С 1 н/о н/о +21.7 +16.5 72 +26 +26 душно 1017.9 973.6
05 15.08 С 2 н/о н/о +21.0 +16.1 74 +25 +25 комфорт 1018.2 973.9
06 15.08 С 3
{5}
н/о н/о +20.7 +15.3 71 +24 +24 комфорт 1018.5 974.1 +20.4
07 15.08 С 5-9
{9}
н/о н/о +23.5 +12.4 50 +25 +25 комфорт 1018.3 974.4
08 15.08 С 4-6
{7}
н/о н/о +26.1 +9.7 36 +27 +27 жарко 1018.1 974.5
09 15.08 С 4-6
{7}
30 км ясно +28.4 +9.6 31 +28 +34 жарко 1017.8 974.5
10 15.08
{7}
н/о н/о +31.0 +8.7 25 1017.3 974.4
11 15.08 СВ 3-6
{7}
н/о н/о +33.8 +7.3 19 +32 +32 жарко 1016.5 974.0
12 15.08 С 3-6
{7}
н/о н/о +35.1 +4.8 15 +32 +32 жарко 1015.9 973.6
13 15.08 СЗ 4-8
{8}
н/о н/о +35.5 +5.5 16 +33 +33 жарко 1015.4 973.2
14 15.08 С 2
{7}
н/о н/о +36.9 +5.7 15 +34 +34 очень
жарко
1014.6 972.6
15 15.08 С 2
{8}
н/о н/о +36.8 +7.7 17 +35 +35 очень
жарко
1013.7 971.8
16 15.08 СЗ 4-8
{10}
н/о н/о +36.2 +7.6 17 +34 +34 очень
жарко
1013.3 971.3
17 15.08 СЗ 6-10
{11}
н/о н/о +35.7 +11.2 23 +35 +35 очень
жарко
1013.4 971.3
18 15.08 З 5-8
{11}
н/о н/о +33.6 +11.6 26 +33 +33 жарко 1013.8 971.4 +37.5
19 15.08 З 5
{9}
н/о н/о +30.7 +12.4 33 +32 +32 жарко 1014.6 971.8
20 15.08 З 4
{8}
н/о н/о +27.0 +13.3 43 +29 +29 жарко 1015.7 972.3
21 15.08 З 4
{6}
н/о н/о +25.5 +14.0 49 +28 +28 жарко 1016.5 972.9
22 15.08 З 3
{5}
н/о н/о +24.4 +14.1 53 +27 +27 жарко 1016.6 972.9
23 15.08 З 3
{5}
н/о н/о +24.0 +14.3 55 +27 +27 жарко 1016.7 972.9
00 16.08 З 2 н/о н/о +23.3 +14.4 57 +27 +27 душно 1016.8 972.8
01 16.08 З 2 н/о н/о +23.1 +14.6 59 +27 +27 душно 1016.7 972.7
02 16.08 З 2 н/о н/о +23.1 +14.1 57 +27 +27 душно 1016.6 972.6
03 16.08 З 2 н/о н/о +21.6 +13.9 62 +24 +24 комфорт 1016.7 972.6
04 16.08 З 2 н/о н/о +21.6 +13.7 61 +24 +24 комфорт 1016.5 972.3
05 16.08 З 2 н/о н/о +19.9 +13.7 67 +22 +22 комфорт 1017.0 972.5
06 16.08 З 2 н/о н/о +20.0 +13.6 67 +23 +23 комфорт 1017.0 972.6 +19.7
07 16.08 СЗ 2 н/о н/о +21.9 +14.0 61 +25 +25 комфорт 1017.0 972.9
08 16.08 СЗ 2 30 км ясно +25.7 +14.5 50 +28 +32 жарко 1016.7 973.1
09 16.08 С 3-6
{7}
30 км ясно +28.7 +13.6 40 +31 +37 жарко 1016.1 973.0
10 16.08 СВ 3-5
{7}
30 км ясно +30.8 +13.3 34 +32 +42 жарко 1015.9 973.0
11 16.08
{6}
30 км ясно +32.6 +11.7 28 1015.4 972.8
12 16.08 С 2
{5}
30 км ясно +33.3 +11.5 26 +33 +50 жарко 1014.7 972.2
13 16.08 -5
{8}
30 км ясно +35.8 +9.8 21 1013.7 971.6
14 16.08
{6}
н/о н/о +36.3 +9.8 20 1012.9 970.9
15 16.08 ЮЗ 4-8
{13}
н/о н/о +36.1 +12.9 25 +36 +36 очень
жарко
1012.5 970.5
16 16.08 З 5-9
{9}
н/о н/о +36.1 +12.1 24 +36 +36 очень
жарко
1012.3 970.3
17 16.08 З 5
{9}
н/о н/о +34.7 +11.9 25 +34 +34 очень
жарко
1012.6 970.4
18 16.08 З 5-8
{9}
н/о н/о +32.8 +8.1 22 +31 +31 жарко 1012.8 970.3 +37.2
19 16.08 З 5-8
{9}
н/о н/о +29.5 +8.7 27 +29 +29 жарко 1013.4 970.5
20 16.08 З 4
{8}
н/о н/о +26.3 +10.9 38 +27 +27 жарко 1014.2 970.8
21 16.08 З 3
{7}
н/о н/о +25.0 +10.4 40 +26 +26 жарко 1015.0 971.3
22 16.08 З 3
{5}
н/о н/о +23.6 +9.4 40 +24 +24 комфорт 1015.2 971.4
23 16.08 З 3 н/о н/о +22.8 +8.9 41 +24 +24 комфорт 1015.6 971.6
00 17.08 З 3 н/о н/о +22.2 +8.9 43 +24 +24 комфорт 1015.7 971.6
01 17.08 З 2 н/о н/о +22.5 +9.0 42 +24 +24 комфорт 1015.4 971.4
02 17.08 З 1 н/о н/о +22.2 +9.0 43 +24 +24 комфорт 1015.2 971.1
03 17.08 З 1 н/о н/о +21.4 +9.4 46 +23 +23 комфорт 1015.3 971.1
04 17.08 З 2 н/о н/о +19.4 +9.0 51 +21 +21 комфорт 1015.4 971.0
05 17.08 З 2 н/о н/о +19.2 +8.8 51 +21 +21 комфорт 1015.4 970.9
06 17.08 З 2 н/о н/о +16.9 +9.3 61 +17 +17 1016.0 971.2 +16.0
07 17.08 З 1 н/о н/о +19.5 +9.6 53 +22 +22 комфорт 1015.8 971.4
08 17.08 н/о н/о +24.0 +9.5 40 1015.3 971.5
09 17.08 С 2 н/о н/о +28.8 +6.8 25 +28 +28 жарко 1014.6 971.5
10 17.08
{5}
н/о н/о +30.9 +8.9 25 1014.2 971.4
11 17.08 С 2
{5}
н/о н/о +31.2 +8.6 25 +30 +30 жарко 1013.8 971.1
12 17.08 С 1 н/о н/о +33.5 +9.0 22 +32 +32 жарко 1013.0 970.7
13 17.08
{5}
н/о н/о +34.5 +8.1 20 1012.2 970.0
14 17.08
{5}
н/о н/о +35.4 +7.3 18 1011.4 969.3
15 17.08 С 3-6
{6}
н/о н/о +36.8 +7.0 16 +34 +34 очень
жарко
1010.4 968.6
16 17.08
{8}
н/о н/о +36.9 +6.8 16 1010.1 968.2
17 17.08 З 3-7
{7}
н/о н/о +36.6 +7.7 17 +35 +35 очень
жарко
1009.7 967.8
18 17.08 З 4-7
{8}
н/о н/о +34.5 +10.3 23 +34 +34 очень
жарко
1009.7 967.6 +37.7
19 17.08 СЗ 6-9
{9}
н/о н/о +29.4 +14.0 39 +31 +31 жарко 1011.1 968.3
20 17.08 З 5-9
{11}
н/о н/о +26.4 +13.3 44 +28 +28 жарко 1011.9 968.6
21 17.08 З 5-9
{9}
н/о н/о +24.3 +12.0 46 +26 +26 жарко 1012.6 969.0
22 17.08 З 3
{9}
н/о н/о +22.2 +12.0 52 +25 +25 комфорт 1012.9 969.0
23 17.08 З 4
{7}
н/о н/о +21.5 +11.4 53 +24 +24 комфорт 1013.1 969.0
00 18.08 З 3
{6}
н/о н/о +21.1 +11.5 54 +23 +23 комфорт 1013.2 969.1
01 18.08 З 4
{6}
н/о н/о +20.2 +10.8 55 +22 +22 комфорт 1012.9 968.7
02 18.08 З 3
{5}
н/о н/о +19.4 +11.5 60 +21 +21 комфорт 1013.0 968.7
03 18.08 З 3
{5}
н/о н/о +18.5 +12.9 70 +19 +19 1013.1 968.7
04 18.08 З 3
{5}
н/о н/о +17.9 +13.0 73 +18 +18 1013.3 968.7
05 18.08 З 3
{5}
н/о н/о +17.4 +13.8 79 +17 +17 1013.5 968.8
06 18.08 З 2 н/о н/о +16.7 +14.0 84 +17 +17 1014.1 969.3 +16.6
07 18.08 З 3
{5}
н/о н/о +18.4 +14.2 77 +19 +19 1014.3 969.7
08 18.08 СЗ 4-6
{6}
н/о н/о +21.9 +13.7 60 +25 +25 комфорт 1014.3 970.3
09 18.08 СЗ 3-5
{6}
25 км 8/1 500 м
[Cu hum Ac und]
+23.4 +13.8 55 +27 +30 душно 1014.3 970.5
10 18.08 З 4-6
{6}
н/о н/о +24.3 +13.8 52 +27 +27 жарко 1014.7 971.0
11 18.08 З 3-5
{7}
н/о н/о +27.4 +13.9 43 +29 +29 жарко 1014.0 970.7
12 18.08 З 4-10
{10}
н/о н/о +30.2 +15.5 41 +33 +33 душно 1013.2 970.4
13 18.08 З 5-9
{11}
н/о н/о +30.3 +16.0 42 +33 +33 душно 1012.9 970.1
14 18.08 СЗ 5-8
{10}
н/о н/о +31.8 +16.1 39 +35 +35 очень
душно
1012.6 970.0
15 18.08 З 6-9
{10}
н/о н/о +31.2 +15.9 40 +34 +34 душно 1012.3 969.7
16 18.08 З 6-11
{11}
н/о н/о +30.7 +17.2 44 +34 +34 очень
душно
1012.4 969.7
17 18.08 СЗ 7
{11}
н/о н/о +28.3 +17.0 50 +32 +32 душно 1012.8 969.8
18 18.08 З 6-10
{11}
н/о н/о +26.0 +16.8 57 +30 +30 душно 1013.3 969.9 +32.2
19 18.08 СЗ 5-9
{10}
н/о н/о +23.0 +16.1 65 +27 +27 душно 1014.1 970.2
20 18.08 СЗ 6
{9}
н/о н/о +20.6 +15.7 73 +23 +23 комфорт 1014.7 970.5
21 18.08 З 5
{8}
н/о н/о +19.3 +14.0 71 +20 +20 1015.9 971.4
22 18.08 З 5-8
{9}
н/о н/о +17.9 +12.1 69 +18 +18 1016.6 971.9
23 18.08 З 4-6
{7}
н/о н/о +16.9 +11.6 71 +16 +16 1016.7 971.8
00 19.08 З 3-5
{6}
н/о н/о +16.0 +11.5 75 +16 +16 1016.4 971.5
01 19.08 З 3
{5}
н/о н/о +16.0 +10.9 72 +16 +16 1016.3 971.3

 

Местоположение метеостанции Кастело Бранко (Португалия): широта 39.83 долгота -7.48 высота над уровнем моря 384 м.

В архиве по умолчанию представлена погода в Кастело Бранко за последнюю неделю. Архивные данные за месяц целиком и за предыдущие месяцы, начиная с января 2011 года, Вы можете получить, выбрав интересующий диапазон дат из раскрывающегося списка и нажав кнопку "Ввод!".


*Определитесь, кто Вы:
робот инопланетянин человек

Внимание! Время в таблицах - всемирное. Для получения местного времени необходимо прибавить поправку, которая равна 0 ч.

Смотрите также архив погоды в соседних городах и на ближайших метеорологических станциях:

Погода в Валенсия-де-Алькантаре (Испания) (50 км)
Погода в Порталегре (Португалия) (61 км)
Погода в Обсерватории Penhas Douradas (Португалия) (66 км)
Погода в Кориа (Испания) (81 км)
Погода в Коимбре (Португалия) (92 км)
Погода в Визеу (Португалия) (105 км)
Погода в Касересе (Испания) (106 км)
Погода в Саэлисес-эль-Чико (Испания) (116 км)
Погода в Бадахосе (Испания) (120 км)
Погода в Монте-Реале (Португалия) (120 км)

Пояснения к столбцам:

Ветер - указаны скорость ветра в м/с - средняя за 10 мин, порывы в срок и между сроками (в фигурных скобках) и направление, откуда дует ветер: С - северный, СВ - северо-восточный, В - восточный, ЮВ - юго-восточный, Ю - южный, ЮЗ - юго-западный, З - западный, СЗ - северо-западный.
Видимость - горизонтальная дальность видимости в метрах или километрах. При видимости от 1 до 10 км при отсутствии осадков обычно наблюдается дымка, при ухудшении видимости до 1 км и менее - туман. В сухую погоду видимость может ухудшаться дымом, пылью или мглою.
Явления - указаны атмосферные явления, наблюдавшиеся в срок или в последний час перед сроком; фигурными скобками обозначены явления, наблюдавшиеся между сроками (за 1-3 часа до срока); квадратными скобками обозначены град или гололедные отложения с указанием их диаметра в мм.
Облачность - указаны через наклонную черту общая и нижняя облачность в баллах и высота нижней границы облаков в метрах; квадратными скобками обозначены формы облаков: Ci - перистые, Cs - перисто-слоистые, Cc - перисто-кучевые, Ac - высококучевые, As - высокослоистые, Sc - слоисто-кучевые, Ns - слоисто-дождевые, Cu - кучевые, Cb - кучево-дождевые. Подробнее классификацию облаков см. в Атласе облаков (PDF).
T - Температура воздуха - температура, измеренная на высоте 2 м над землей.
Td - Температура точки росы - температура, при понижении до которой содержащийся в воздухе водяной пар достигнет насыщения.
f - Относительная влажность воздуха - влажноcть воздуха, измеренная на высоте 2 м над землей.
Te - Эффективная температура - температура, которую ощущает одетый по сезону человек в тени. Характеристика душности погоды. При расчете учитывается влияние влажности воздуха и скорости ветра на теплоощущения человека.
Tes - Эффективная температура на солнце - температура, которую ощущает человек, с поправкой на солнечный нагрев. Характеристика знойности погоды. Зависит от высоты солнца над горизонтом, облачности и скорости ветра. Ночью, в пасмурную погоду, а также при ветре 12 м/с и более поправка равна нулю.
P - Атмосферное давление - приведенное к уровню моря атмосферное давление.
Po - Атмосферное давление - измеренное на уровне метеостанции атмосферное давление.
Tmin - Минимальная температура - минимум температуры воздуха на высоте 2 м над землей.
Tmax - Максимальная температура - максимум температуры воздуха на высоте 2 м над землей.
R - Количество осадков - Количество выпавших осадков за период времени, мм. При наведении курсора мыши на число - период времени, за который выпало указанное количество осадков.
R24 - Количество осадков - Количество выпавших осадков за 24 часа, мм.
S - Снежный покров - Высота снежного покрова, см. При наведении курсора мыши на число - состояние снежного покрова и степень покрытия местности в баллах.